| time (UTC) | temp F | wind direction | speed MPH | gust MPH | rain 1hr in | rain 24hr in | rain mn in | humidity % | barometer mb |
| 20260507164803 | 54 | 310 | 1.0 | 4.0 | 0.00 | 0.00 | 0.00 | 84 | 1019.2 |
| 20260507164303 | 54 | 290 | 1.0 | 3.0 | 0.00 | 0.00 | 0.00 | 85 | 1019.1 |
| 20260507163804 | 53 | 232 | 1.0 | 3.0 | 0.00 | 0.00 | 0.00 | 85 | 1019.2 |
| 20260507163534 | 53 | 214 | 1.0 | 2.0 | 0.00 | 0.00 | 0.00 | 85 | 1019.1 |
| 20260507162802 | 53 | 224 | 1.0 | 3.0 | 0.00 | 0.00 | 0.00 | 85 | 1019.1 |
| 20260507162306 | 53 | 224 | 1.0 | 3.0 | 0.00 | 0.00 | 0.00 | 84 | 1019.3 |
| 20260507161803 | 53 | 220 | 2.0 | 4.0 | 0.00 | 0.00 | 0.00 | 83 | 1019.2 |
| 20260507161302 | 54 | 213 | 2.0 | 4.0 | 0.00 | 0.00 | 0.00 | 83 | 1019.3 |
| 20260507160802 | 53 | 274 | 2.0 | 4.0 | 0.00 | 0.00 | 0.00 | 81 | 1019.2 |
| 20260507160304 | 53 | 330 | 1.0 | 3.0 | 0.00 | 0.00 | 0.00 | 82 | 1019.2 |
| 20260507155803 | 53 | 219 | 2.0 | 4.0 | 0.00 | 0.00 | 0.00 | 83 | 1019.2 |
| 20260507154807 | 53 | 255 | 2.0 | 5.0 | 0.00 | 0.00 | 0.00 | 83 | 1019.3 |
| 20260507154605 | 53 | 243 | 2.0 | 5.0 | 0.00 | 0.00 | 0.00 | 82 | 1019.4 |
| 20260507153804 | 53 | 244 | 2.0 | 5.0 | 0.00 | 0.00 | 0.00 | 81 | 1019.5 |
| 20260507153303 | 54 | 290 | 3.0 | 7.0 | 0.00 | 0.00 | 0.00 | 80 | 1019.6 |
| 20260507153034 | 54 | 272 | 3.0 | 8.0 | 0.00 | 0.00 | 0.00 | 79 | 1019.6 |
| 20260507152301 | 53 | 259 | 4.0 | 10.0 | 0.00 | 0.00 | 0.00 | 78 | 1019.5 |
| 20260507151800 | 53 | 209 | 4.0 | 10.0 | 0.00 | 0.00 | 0.00 | 79 | 1019.6 |
| 20260507151301 | 53 | 139 | 4.0 | 10.0 | 0.00 | 0.00 | 0.00 | 78 | 1019.5 |
| 20260507150254 | 53 | 171 | 3.0 | 7.0 | 0.00 | 0.00 | 0.00 | 80 | 1019.5 |
| 20260507145749 | 53 | 254 | 3.0 | 7.0 | 0.00 | 0.00 | 0.00 | 81 | 1019.6 |
| 20260507145242 | 53 | 231 | 2.0 | 5.0 | 0.00 | 0.00 | 0.00 | 82 | 1019.6 |
| 20260507144742 | 52 | 228 | 1.0 | 5.0 | 0.00 | 0.00 | 0.00 | 83 | 1019.6 |
| 20260507144243 | 52 | 252 | 0.0 | 4.0 | 0.00 | 0.00 | 0.00 | 84 | 1019.6 |
| 20260507143740 | 52 | 99 | 0.0 | 0.0 | 0.00 | 0.00 | 0.00 | 85 | 1019.6 |
| 20260507143520 | 52 | 97 | 0.0 | 1.0 | 0.00 | 0.00 | 0.00 | 85 | 1019.6 |
| 20260507142736 | 52 | 97 | 0.0 | 3.0 | 0.00 | 0.00 | 0.00 | 84 | 1019.5 |
| 20260507142235 | 52 | 97 | 1.0 | 3.0 | 0.00 | 0.00 | 0.00 | 84 | 1019.5 |
| 20260507142010 | 52 | 86 | 1.0 | 3.0 | 0.00 | 0.00 | 0.00 | 84 | 1019.4 |
| 20260507141231 | 53 | 65 | 1.0 | 3.0 | 0.00 | 0.00 | 0.00 | 84 | 1019.5 |
| 20260507141007 | 53 | 103 | 1.0 | 5.0 | 0.00 | 0.00 | 0.00 | 83 | 1019.4 |
| 20260507140229 | 53 | 103 | 1.0 | 5.0 | 0.00 | 0.00 | 0.00 | 83 | 1019.5 |
| 20260507135730 | 53 | 359 | 0.0 | 2.0 | 0.00 | 0.00 | 0.00 | 83 | 1019.4 |
| 20260507135229 | 53 | 359 | 0.0 | 2.0 | 0.00 | 0.00 | 0.00 | 82 | 1019.4 |
| 20260507134729 | 53 | 336 | 1.0 | 4.0 | 0.00 | 0.00 | 0.00 | 83 | 1019.3 |
| 20260507134230 | 52 | 336 | 1.0 | 4.0 | 0.00 | 0.00 | 0.00 | 84 | 1019.3 |
| 20260507133732 | 52 | 40 | 1.0 | 2.0 | 0.00 | 0.00 | 0.00 | 84 | 1019.2 |
| 20260507133229 | 52 | 42 | 1.0 | 2.0 | 0.00 | 0.00 | 0.00 | 84 | 1019.2 |
| 20260507133002 | 52 | 40 | 1.0 | 2.0 | 0.00 | 0.00 | 0.00 | 84 | 1019.2 |
| 20260507132229 | 52 | 42 | 0.0 | 2.0 | 0.00 | 0.00 | 0.00 | 83 | 1019.0 |
| 20260507131724 | 52 | 42 | 0.0 | 3.0 | 0.00 | 0.00 | 0.00 | 83 | 1019.0 |
| 20260507131218 | 52 | 42 | 0.0 | 3.0 | 0.00 | 0.00 | 0.00 | 82 | 1018.9 |
| 20260507130948 | 52 | 43 | 0.0 | 1.0 | 0.00 | 0.00 | 0.00 | 82 | 1018.9 |
| 20260507130205 | 52 | 43 | 0.0 | 1.0 | 0.00 | 0.00 | 0.00 | 82 | 1018.9 |
| 20260507125703 | 52 | 43 | 0.0 | 2.0 | 0.00 | 0.00 | 0.00 | 82 | 1019.0 |
| 20260507125202 | 52 | 43 | 0.0 | 2.0 | 0.00 | 0.00 | 0.00 | 81 | 1018.9 |
| 20260507124703 | 52 | 43 | 1.0 | 2.0 | 0.00 | 0.00 | 0.00 | 81 | 1018.9 |
| 20260507124201 | 53 | 43 | 1.0 | 2.0 | 0.00 | 0.00 | 0.00 | 81 | 1019.0 |
| 20260507123702 | 53 | 40 | 1.0 | 3.0 | 0.00 | 0.00 | 0.00 | 81 | 1018.9 |
| 20260507123202 | 53 | 42 | 1.0 | 3.0 | 0.00 | 0.00 | 0.00 | 81 | 1018.9 |
| 20260507122701 | 53 | 349 | 0.0 | 2.0 | 0.00 | 0.00 | 0.00 | 80 | 1019.0 |
| 20260507122434 | 53 | 341 | 1.0 | 4.0 | 0.00 | 0.00 | 0.00 | 80 | 1019.0 |
| 20260507121701 | 53 | 341 | 2.0 | 8.0 | 0.00 | 0.00 | 0.00 | 79 | 1019.1 |
| 20260507121207 | 54 | 230 | 3.0 | 8.0 | 0.00 | 0.00 | 0.00 | 76 | 1019.1 |
| 20260507120704 | 54 | 259 | 2.0 | 7.0 | 0.00 | 0.00 | 0.00 | 76 | 1019.1 |
| 20260507120201 | 53 | 232 | 2.0 | 7.0 | 0.00 | 0.00 | 0.00 | 77 | 1019.1 |
| 20260507115701 | 53 | 251 | 1.0 | 3.0 | 0.00 | 0.00 | 0.00 | 78 | 1019.0 |
| 20260507115201 | 53 | 215 | 1.0 | 3.0 | 0.00 | 0.00 | 0.00 | 79 | 1019.1 |
| 20260507114701 | 53 | 215 | 1.0 | 4.0 | 0.00 | 0.00 | 0.00 | 78 | 1019.2 |
| 20260507114201 | 53 | 262 | 0.0 | 4.0 | 0.00 | 0.00 | 0.00 | 80 | 1019.2 |
| 20260507113701 | 53 | 313 | 0.0 | 3.0 | 0.00 | 0.00 | 0.00 | 80 | 1019.2 |
| 20260507113159 | 53 | 313 | 0.0 | 3.0 | 0.00 | 0.00 | 0.00 | 79 | 1019.2 |
| 20260507112921 | 53 | 351 | 0.0 | 1.0 | 0.00 | 0.00 | 0.00 | 79 | 1019.3 |
| 20260507112147 | 53 | 359 | 0.0 | 0.0 | 0.00 | 0.00 | 0.00 | 79 | 1019.3 |
| 20260507111642 | 53 | 359 | 0.0 | 0.0 | 0.00 | 0.00 | 0.00 | 79 | 1019.3 |
| 20260507111136 | 53 | 357 | 0.0 | 0.0 | 0.00 | 0.00 | 0.00 | 79 | 1019.3 |
| 20260507110903 | 53 | 355 | 0.0 | 2.0 | 0.00 | 0.00 | 0.00 | 78 | 1019.3 |
| 20260507110351 | 53 | 350 | 1.0 | 4.0 | 0.00 | 0.00 | 0.00 | 77 | 1019.1 |
| 20260507105622 | 54 | 351 | 2.0 | 8.0 | 0.00 | 0.00 | 0.00 | 77 | 1019.1 |
| 20260507105353 | 54 | 247 | 2.0 | 8.0 | 0.00 | 0.00 | 0.00 | 76 | 1019.1 |
| 20260507104620 | 54 | 295 | 3.0 | 9.0 | 0.00 | 0.00 | 0.00 | 76 | 1019.0 |
| 20260507104120 | 54 | 127 | 4.0 | 10.0 | 0.00 | 0.00 | 0.00 | 75 | 1019.0 |
| 20260507103619 | 54 | 176 | 7.0 | 15.0 | 0.00 | 0.00 | 0.00 | 76 | 1019.0 |
| 20260507103120 | 54 | 191 | 7.0 | 15.0 | 0.00 | 0.00 | 0.00 | 76 | 1019.1 |
| 20260507102620 | 54 | 190 | 6.0 | 13.0 | 0.00 | 0.00 | 0.00 | 76 | 1019.1 |
| 20260507102120 | 54 | 207 | 6.0 | 15.0 | 0.00 | 0.00 | 0.00 | 75 | 1019.1 |
| 20260507101620 | 54 | 182 | 6.0 | 15.0 | 0.00 | 0.00 | 0.00 | 75 | 1019.1 |
| 20260507101121 | 54 | 228 | 6.0 | 15.0 | 0.00 | 0.00 | 0.00 | 76 | 1019.2 |
| 20260507100624 | 54 | 174 | 6.0 | 15.0 | 0.00 | 0.00 | 0.00 | 76 | 1019.1 |
| 20260507100119 | 54 | 209 | 7.0 | 16.0 | 0.00 | 0.00 | 0.00 | 76 | 1019.1 |
| 20260507095620 | 54 | 124 | 8.0 | 19.0 | 0.00 | 0.00 | 0.00 | 75 | 1019.0 |
| 20260507095120 | 54 | 152 | 8.0 | 19.0 | 0.00 | 0.00 | 0.00 | 76 | 1019.2 |
| 20260507094620 | 54 | 119 | 8.0 | 18.0 | 0.00 | 0.00 | 0.00 | 78 | 1019.1 |
| 20260507094115 | 54 | 185 | 8.0 | 18.0 | 0.00 | 0.00 | 0.00 | 78 | 1019.1 |
| 20260507093852 | 54 | 151 | 7.0 | 16.0 | 0.00 | 0.00 | 0.00 | 78 | 1019.1 |
| 20260507093123 | 54 | 202 | 8.0 | 15.0 | 0.00 | 0.00 | 0.00 | 78 | 1019.1 |
| 20260507092620 | 54 | 134 | 9.0 | 17.0 | 0.00 | 0.00 | 0.00 | 78 | 1019.1 |
| 20260507092118 | 54 | 158 | 8.0 | 17.0 | 0.00 | 0.00 | 0.00 | 79 | 1019.2 |
| 20260507091615 | 54 | 174 | 8.0 | 16.0 | 0.00 | 0.00 | 0.00 | 78 | 1019.1 |
| 20260507091116 | 54 | 211 | 8.0 | 16.0 | 0.00 | 0.00 | 0.00 | 79 | 1019.0 |
| 20260507090616 | 54 | 96 | 6.0 | 14.0 | 0.00 | 0.00 | 0.00 | 79 | 1019.1 |
| 20260507090116 | 54 | 128 | 6.0 | 14.0 | 0.00 | 0.00 | 0.00 | 79 | 1019.1 |
| 20260507085612 | 55 | 234 | 7.0 | 14.0 | 0.00 | 0.00 | 0.00 | 79 | 1019.0 |
| 20260507085112 | 55 | 124 | 7.0 | 17.0 | 0.00 | 0.00 | 0.00 | 79 | 1019.0 |
| 20260507084611 | 55 | 99 | 6.0 | 17.0 | 0.00 | 0.00 | 0.00 | 79 | 1019.0 |
| 20260507084111 | 55 | 162 | 5.0 | 13.0 | 0.00 | 0.00 | 0.00 | 79 | 1019.0 |
| 20260507083613 | 55 | 144 | 6.0 | 15.0 | 0.00 | 0.00 | 0.00 | 79 | 1018.9 |
| 20260507083112 | 55 | 124 | 6.0 | 15.0 | 0.00 | 0.00 | 0.00 | 79 | 1019.0 |
| 20260507082612 | 55 | 184 | 6.0 | 15.0 | 0.00 | 0.00 | 0.00 | 79 | 1019.0 |
| 20260507082113 | 55 | 170 | 7.0 | 14.0 | 0.00 | 0.00 | 0.00 | 79 | 1019.0 |
| 20260507081611 | 55 | 116 | 8.0 | 16.0 | 0.00 | 0.00 | 0.00 | 79 | 1019.0 |
| 20260507081111 | 55 | 184 | 8.0 | 16.0 | 0.00 | 0.00 | 0.00 | 79 | 1019.1 |
| 20260507080341 | 55 | 135 | 6.0 | 13.0 | 0.00 | 0.00 | 0.00 | 78 | 1019.0 |
| 20260507075609 | 55 | 154 | 7.0 | 13.0 | 0.00 | 0.00 | 0.00 | 78 | 1018.9 |
| 20260507075110 | 55 | 180 | 6.0 | 13.0 | 0.00 | 0.00 | 0.00 | 78 | 1018.9 |
| 20260507074610 | 55 | 176 | 7.0 | 13.0 | 0.00 | 0.00 | 0.00 | 78 | 1018.9 |
| 20260507074110 | 55 | 138 | 7.0 | 15.0 | 0.00 | 0.00 | 0.00 | 78 | 1018.8 |
| 20260507073607 | 55 | 224 | 6.0 | 15.0 | 0.00 | 0.00 | 0.00 | 78 | 1018.8 |
| 20260507073106 | 55 | 125 | 5.0 | 12.0 | 0.00 | 0.00 | 0.00 | 79 | 1018.8 |
| 20260507072606 | 55 | 173 | 4.0 | 11.0 | 0.00 | 0.00 | 0.00 | 79 | 1018.8 |
| 20260507072324 | 55 | 139 | 4.0 | 11.0 | 0.00 | 0.00 | 0.00 | 80 | 1018.8 |
| 20260507071604 | 55 | 174 | 5.0 | 11.0 | 0.00 | 0.00 | 0.00 | 80 | 1018.7 |
| 20260507071330 | 55 | 155 | 6.0 | 14.0 | 0.00 | 0.00 | 0.00 | 80 | 1018.7 |
| 20260507070605 | 55 | 150 | 6.0 | 14.0 | 0.00 | 0.00 | 0.00 | 80 | 1018.6 |
| 20260507070101 | 55 | 170 | 4.0 | 12.0 | 0.00 | 0.00 | 0.00 | 81 | 1018.6 |
| 20260507065601 | 55 | 139 | 4.0 | 9.0 | 0.00 | 0.00 | 0.00 | 81 | 1018.5 |
| 20260507065101 | 55 | 141 | 3.0 | 7.0 | 0.00 | 0.00 | 0.00 | 82 | 1018.5 |
| 20260507064601 | 55 | 143 | 2.0 | 7.0 | 0.00 | 0.00 | 0.00 | 82 | 1018.4 |
| 20260507064102 | 55 | 156 | 2.0 | 5.0 | 0.00 | 0.00 | 0.00 | 82 | 1018.3 |
| 20260507063600 | 55 | 156 | 1.0 | 4.0 | 0.00 | 0.00 | 0.00 | 83 | 1018.3 |
| 20260507063101 | 55 | 157 | 2.0 | 8.0 | 0.00 | 0.00 | 0.00 | 84 | 1018.3 |
| 20260507062601 | 55 | 157 | 2.0 | 8.0 | 0.00 | 0.00 | 0.00 | 84 | 1018.2 |
| 20260507062101 | 55 | 170 | 2.0 | 6.0 | 0.00 | 0.00 | 0.00 | 85 | 1018.2 |
| 20260507061831 | 54 | 149 | 2.0 | 6.0 | 0.00 | 0.00 | 0.00 | 84 | 1018.1 |
| 20260507061100 | 55 | 141 | 1.0 | 4.0 | 0.00 | 0.00 | 0.00 | 84 | 1018.1 |
| 20260507060606 | 55 | 180 | 1.0 | 3.0 | 0.00 | 0.00 | 0.00 | 84 | 1018.1 |
| 20260507055600 | 55 | 165 | 1.0 | 7.0 | 0.00 | 0.00 | 0.00 | 84 | 1018.1 |
| 20260507055334 | 55 | 163 | 2.0 | 8.0 | 0.00 | 0.00 | 0.00 | 84 | 1018.2 |
| 20260507054601 | 55 | 209 | 2.0 | 10.0 | 0.00 | 0.00 | 0.00 | 84 | 1018.1 |
| 20260507054330 | 55 | 195 | 2.0 | 10.0 | 0.00 | 0.00 | 0.00 | 84 | 1018.2 |
| 20260507053604 | 54 | 136 | 1.0 | 9.0 | 0.00 | 0.00 | 0.00 | 85 | 1018.1 |
| 20260507053101 | 54 | 163 | 1.0 | 9.0 | 0.00 | 0.00 | 0.00 | 85 | 1018.0 |
| 20260507052601 | 54 | 209 | 0.0 | 0.0 | 0.00 | 0.00 | 0.00 | 85 | 1018.0 |
| 20260507052101 | 54 | 154 | 0.0 | 0.0 | 0.00 | 0.00 | 0.00 | 85 | 1018.2 |
| 20260507051602 | 54 | 162 | 0.0 | 0.0 | 0.00 | 0.00 | 0.00 | 85 | 1018.2 |
| 20260507051102 | 54 | 131 | 0.0 | 0.0 | 0.00 | 0.00 | 0.00 | 85 | 1018.2 |
| 20260507050601 | 54 | 131 | 0.0 | 2.0 | 0.00 | 0.00 | 0.00 | 85 | 1018.3 |
| 20260507045600 | 54 | 131 | 1.0 | 2.0 | 0.00 | 0.00 | 0.00 | 85 | 1018.3 |
| 20260507045338 | 54 | 131 | 0.0 | 2.0 | 0.00 | 0.00 | 0.00 | 85 | 1018.2 |
| 20260507044836 | 54 | 131 | 0.0 | 0.0 | 0.00 | 0.00 | 0.00 | 84 | 1018.3 |
| 20260507044101 | 54 | 131 | 1.0 | 3.0 | 0.00 | 0.00 | 0.00 | 84 | 1018.3 |
| 20260507043600 | 54 | 131 | 1.0 | 3.0 | 0.00 | 0.00 | 0.00 | 84 | 1018.3 |
| 20260507043058 | 54 | 131 | 1.0 | 3.0 | 0.00 | 0.00 | 0.00 | 84 | 1018.4 |
| 20260507042552 | 55 | 131 | 1.0 | 3.0 | 0.00 | 0.00 | 0.00 | 84 | 1018.4 |
| 20260507042046 | 55 | 131 | 1.0 | 5.0 | 0.00 | 0.00 | 0.00 | 83 | 1018.3 |
| 20260507041540 | 55 | 116 | 1.0 | 5.0 | 0.00 | 0.00 | 0.00 | 83 | 1018.2 |
| 20260507041034 | 55 | 103 | 2.0 | 5.0 | 0.00 | 0.00 | 0.00 | 83 | 1018.2 |
| 20260507040537 | 55 | 103 | 3.0 | 6.0 | 0.00 | 0.00 | 0.00 | 82 | 1018.1 |
| 20260507040033 | 55 | 87 | 2.0 | 6.0 | 0.00 | 0.00 | 0.00 | 82 | 1018.0 |
| 20260507035800 | 56 | 89 | 1.0 | 4.0 | 0.00 | 0.00 | 0.00 | 81 | 1018.1 |
| 20260507035029 | 56 | 154 | 1.0 | 5.0 | 0.00 | 0.00 | 0.00 | 80 | 1018.0 |
| 20260507034529 | 56 | 154 | 1.0 | 5.0 | 0.00 | 0.00 | 0.00 | 80 | 1017.9 |
| 20260507034255 | 56 | 232 | 1.0 | 3.0 | 0.00 | 0.00 | 0.00 | 79 | 1018.0 |
| 20260507033529 | 56 | 301 | 2.0 | 6.0 | 0.00 | 0.00 | 0.00 | 79 | 1018.0 |
| 20260507033029 | 56 | 268 | 2.0 | 6.0 | 0.00 | 0.00 | 0.00 | 79 | 1017.9 |
| 20260507032530 | 56 | 128 | 2.0 | 10.0 | 0.00 | 0.00 | 0.00 | 79 | 1017.8 |
| 20260507032029 | 56 | 105 | 2.0 | 10.0 | 0.00 | 0.00 | 0.00 | 79 | 1017.9 |
| 20260507031529 | 56 | 156 | 3.0 | 7.0 | 0.00 | 0.00 | 0.00 | 79 | 1017.8 |
| 20260507031303 | 56 | 158 | 3.0 | 9.0 | 0.00 | 0.00 | 0.00 | 79 | 1017.9 |
| 20260507030529 | 56 | 103 | 4.0 | 11.0 | 0.00 | 0.00 | 0.00 | 79 | 1017.9 |
| 20260507030029 | 56 | 159 | 7.0 | 15.0 | 0.00 | 0.00 | 0.00 | 79 | 1017.8 |
| 20260507025530 | 56 | 132 | 8.0 | 15.0 | 0.00 | 0.00 | 0.00 | 78 | 1017.9 |
| 20260507025029 | 56 | 128 | 8.0 | 14.0 | 0.00 | 0.00 | 0.00 | 78 | 1017.9 |
| 20260507024535 | 56 | 120 | 8.0 | 12.0 | 0.00 | 0.00 | 0.00 | 78 | 1017.8 |
| 20260507024035 | 56 | 139 | 7.0 | 12.0 | 0.00 | 0.00 | 0.00 | 78 | 1017.8 |
| 20260507023524 | 56 | 125 | 6.0 | 12.0 | 0.00 | 0.00 | 0.00 | 78 | 1017.9 |
| 20260507023019 | 56 | 119 | 8.0 | 15.0 | 0.00 | 0.00 | 0.00 | 78 | 1017.8 |
| 20260507022753 | 56 | 132 | 8.0 | 15.0 | 0.00 | 0.00 | 0.00 | 79 | 1017.8 |
| 20260507021504 | 56 | 128 | 8.0 | 18.0 | 0.00 | 0.00 | 0.00 | 79 | 1018.0 |
| 20260507021009 | 56 | 153 | 9.0 | 18.0 | 0.00 | 0.00 | 0.00 | 79 | 1018.0 |
| 20260507020506 | 56 | 134 | 9.0 | 18.0 | 0.00 | 0.00 | 0.00 | 79 | 1018.0 |
| 20260507020005 | 56 | 143 | 8.0 | 18.0 | 0.00 | 0.00 | 0.00 | 79 | 1018.0 |
| 20260507015502 | 56 | 137 | 7.0 | 17.0 | 0.00 | 0.00 | 0.00 | 79 | 1017.9 |
| 20260507015002 | 56 | 117 | 7.0 | 15.0 | 0.00 | 0.00 | 0.00 | 79 | 1018.0 |
| 20260507014502 | 56 | 99 | 6.0 | 14.0 | 0.00 | 0.00 | 0.00 | 79 | 1018.0 |
| 20260507014001 | 57 | 116 | 5.0 | 13.0 | 0.00 | 0.00 | 0.00 | 79 | 1017.9 |
| 20260507013739 | 57 | 113 | 5.0 | 15.0 | 0.00 | 0.00 | 0.00 | 79 | 1017.9 |
| 20260507013003 | 57 | 142 | 5.0 | 15.0 | 0.00 | 0.00 | 0.00 | 79 | 1017.9 |
| 20260507012502 | 57 | 224 | 6.0 | 12.0 | 0.00 | 0.00 | 0.00 | 79 | 1017.9 |
| 20260507012003 | 57 | 125 | 6.0 | 12.0 | 0.00 | 0.00 | 0.00 | 79 | 1017.9 |
| 20260507011503 | 57 | 93 | 6.0 | 12.0 | 0.00 | 0.00 | 0.00 | 79 | 1017.9 |
| 20260507011001 | 56 | 109 | 7.0 | 11.0 | 0.00 | 0.00 | 0.00 | 79 | 1017.8 |
| 20260507010503 | 56 | 136 | 6.0 | 14.0 | 0.00 | 0.00 | 0.00 | 79 | 1017.9 |
| 20260507010002 | 56 | 150 | 5.0 | 14.0 | 0.00 | 0.00 | 0.00 | 79 | 1017.9 |
| 20260507005501 | 56 | 103 | 4.0 | 12.0 | 0.00 | 0.00 | 0.00 | 79 | 1018.0 |
| 20260507004958 | 56 | 138 | 4.0 | 12.0 | 0.00 | 0.00 | 0.00 | 79 | 1018.0 |
| 20260507004458 | 57 | 124 | 4.0 | 8.0 | 0.00 | 0.00 | 0.00 | 78 | 1018.0 |
| 20260507003958 | 57 | 164 | 5.0 | 12.0 | 0.00 | 0.00 | 0.00 | 78 | 1018.0 |
| 20260507003459 | 56 | 122 | 6.0 | 12.0 | 0.00 | 0.00 | 0.00 | 78 | 1018.0 |
| 20260507002958 | 56 | 130 | 8.0 | 16.0 | 0.00 | 0.00 | 0.00 | 79 | 1018.0 |
| 20260507002457 | 56 | 187 | 9.0 | 17.0 | 0.00 | 0.00 | 0.00 | 78 | 1018.0 |
| 20260507001958 | 56 | 147 | 9.0 | 17.0 | 0.00 | 0.00 | 0.00 | 78 | 1018.0 |
| 20260507001458 | 56 | 172 | 8.0 | 19.0 | 0.00 | 0.00 | 0.00 | 78 | 1018.0 |
| 20260507000957 | 56 | 149 | 8.0 | 19.0 | 0.00 | 0.00 | 0.00 | 78 | 1017.9 |
| 20260507000458 | 56 | 130 | 8.0 | 17.0 | 0.00 | 0.00 | 0.00 | 78 | 1018.0 |
| 20260506235954 | 56 | 144 | 9.0 | 18.0 | 0.00 | 0.00 | 0.00 | 78 | 1017.9 |
| 20260506235455 | 56 | 125 | 11.0 | 20.0 | 0.00 | 0.00 | 0.00 | 78 | 1017.9 |
| 20260506234954 | 56 | 145 | 11.0 | 20.0 | 0.00 | 0.00 | 0.00 | 78 | 1018.0 |
| 20260506234454 | 56 | 128 | 11.0 | 19.0 | 0.00 | 0.00 | 0.00 | 78 | 1017.9 |
| 20260506233953 | 56 | 117 | 10.0 | 19.0 | 0.00 | 0.00 | 0.00 | 78 | 1017.8 |
| 20260506233457 | 56 | 170 | 11.0 | 21.0 | 0.00 | 0.00 | 0.00 | 78 | 1017.9 |
| 20260506232957 | 56 | 87 | 11.0 | 21.0 | 0.00 | 0.00 | 0.00 | 78 | 1017.8 |
| 20260506232459 | 56 | 180 | 11.0 | 21.0 | 0.00 | 0.00 | 0.00 | 78 | 1017.9 |
| 20260506231957 | 56 | 103 | 10.0 | 24.0 | 0.00 | 0.00 | 0.00 | 78 | 1018.0 |
| 20260506231448 | 56 | 118 | 11.0 | 24.0 | 0.00 | 0.00 | 0.00 | 78 | 1018.0 |
| 20260506230948 | 56 | 74 | 11.0 | 24.0 | 0.00 | 0.00 | 0.00 | 78 | 1018.0 |
| 20260506230723 | 56 | 159 | 11.0 | 24.0 | 0.00 | 0.00 | 0.00 | 78 | 1017.9 |
| 20260506230218 | 56 | 122 | 11.0 | 20.0 | 0.00 | 0.00 | 0.00 | 79 | 1018.1 |
| 20260506225448 | 56 | 191 | 11.0 | 23.0 | 0.00 | 0.00 | 0.00 | 78 | 1018.2 |
| 20260506224947 | 56 | 185 | 10.0 | 23.0 | 0.00 | 0.00 | 0.00 | 78 | 1017.9 |
| 20260506224448 | 56 | 123 | 11.0 | 23.0 | 0.00 | 0.00 | 0.00 | 78 | 1017.9 |
| 20260506223948 | 56 | 157 | 12.0 | 25.0 | 0.00 | 0.00 | 0.00 | 78 | 1018.0 |
| 20260506223446 | 56 | 136 | 12.0 | 25.0 | 0.00 | 0.00 | 0.00 | 78 | 1018.1 |
| 20260506222946 | 56 | 130 | 12.0 | 25.0 | 0.00 | 0.00 | 0.00 | 77 | 1018.1 |
| 20260506222446 | 56 | 168 | 12.0 | 25.0 | 0.00 | 0.00 | 0.00 | 77 | 1018.3 |
| 20260506221945 | 56 | 103 | 10.0 | 20.0 | 0.00 | 0.00 | 0.00 | 76 | 1018.2 |
| 20260506221445 | 57 | 182 | 9.0 | 20.0 | 0.00 | 0.00 | 0.00 | 76 | 1018.3 |
| 20260506220940 | 57 | 162 | 9.0 | 19.0 | 0.00 | 0.00 | 0.00 | 76 | 1018.2 |
| 20260506220434 | 57 | 149 | 9.0 | 21.0 | 0.00 | 0.00 | 0.00 | 75 | 1018.2 |
| 20260506215931 | 57 | 267 | 10.0 | 21.0 | 0.00 | 0.00 | 0.00 | 75 | 1018.2 |
| 20260506215431 | 57 | 124 | 9.0 | 17.0 | 0.00 | 0.00 | 0.00 | 75 | 1018.3 |
| 20260506215157 | 57 | 86 | 8.0 | 18.0 | 0.00 | 0.00 | 0.00 | 74 | 1018.2 |
| 20260506214707 | 57 | 109 | 9.0 | 18.0 | 0.00 | 0.00 | 0.00 | 74 | 1018.2 |
| 20260506214201 | 57 | 192 | 10.0 | 17.0 | 0.00 | 0.00 | 0.00 | 74 | 1018.1 |
| 20260506213429 | 57 | 117 | 9.0 | 18.0 | 0.00 | 0.00 | 0.00 | 74 | 1018.2 |
| 20260506212930 | 57 | 159 | 9.0 | 18.0 | 0.00 | 0.00 | 0.00 | 75 | 1018.4 |
| 20260506212429 | 57 | 143 | 9.0 | 17.0 | 0.00 | 0.00 | 0.00 | 74 | 1018.3 |
| 20260506211935 | 57 | 115 | 9.0 | 19.0 | 0.00 | 0.00 | 0.00 | 75 | 1018.3 |
| 20260506211433 | 57 | 126 | 9.0 | 19.0 | 0.00 | 0.00 | 0.00 | 75 | 1018.3 |
| 20260506210933 | 57 | 103 | 8.0 | 19.0 | 0.00 | 0.00 | 0.00 | 75 | 1018.4 |
| 20260506210434 | 57 | 155 | 8.0 | 17.0 | 0.00 | 0.00 | 0.00 | 75 | 1018.5 |
| 20260506205931 | 57 | 135 | 8.0 | 20.0 | 0.00 | 0.00 | 0.00 | 75 | 1018.4 |
| 20260506205429 | 57 | 157 | 8.0 | 20.0 | 0.00 | 0.00 | 0.00 | 74 | 1018.4 |
| 20260506204930 | 58 | 200 | 7.0 | 17.0 | 0.00 | 0.00 | 0.00 | 74 | 1018.3 |
| 20260506204658 | 57 | 147 | 5.0 | 15.0 | 0.00 | 0.00 | 0.00 | 74 | 1018.3 |
| 20260506203935 | 58 | 172 | 5.0 | 15.0 | 0.00 | 0.00 | 0.00 | 74 | 1018.3 |
| 20260506203649 | 58 | 224 | 6.0 | 13.0 | 0.00 | 0.00 | 0.00 | 74 | 1018.4 |
| 20260506202922 | 58 | 153 | 6.0 | 14.0 | 0.00 | 0.00 | 0.00 | 73 | 1018.5 |
| 20260506202415 | 59 | 224 | 7.0 | 16.0 | 0.00 | 0.00 | 0.00 | 73 | 1018.5 |
| 20260506201911 | 58 | 234 | 7.0 | 16.0 | 0.00 | 0.00 | 0.00 | 72 | 1018.3 |
| 20260506201411 | 60 | 188 | 4.0 | 12.0 | 0.00 | 0.00 | 0.00 | 71 | 1018.3 |
| 20260506201139 | 60 | 299 | 5.0 | 12.0 | 0.00 | 0.00 | 0.00 | 73 | 1018.2 |
| 20260506200410 | 58 | 275 | 6.0 | 14.0 | 0.00 | 0.00 | 0.00 | 74 | 1018.3 |
| 20260506195907 | 59 | 269 | 4.0 | 14.0 | 0.00 | 0.00 | 0.00 | 73 | 1018.3 |
| 20260506195407 | 59 | 295 | 5.0 | 15.0 | 0.00 | 0.00 | 0.00 | 73 | 1018.3 |
| 20260506194907 | 58 | 143 | 5.0 | 15.0 | 0.00 | 0.00 | 0.00 | 74 | 1018.2 |
| 20260506194407 | 59 | 295 | 4.0 | 13.0 | 0.00 | 0.00 | 0.00 | 73 | 1018.3 |
| 20260506193908 | 59 | 323 | 5.0 | 15.0 | 0.00 | 0.00 | 0.00 | 73 | 1018.2 |
| 20260506193632 | 58 | 295 | 5.0 | 15.0 | 0.00 | 0.00 | 0.00 | 74 | 1018.4 |
| 20260506192908 | 58 | 193 | 4.0 | 12.0 | 0.00 | 0.00 | 0.00 | 73 | 1018.3 |
| 20260506192633 | 59 | 318 | 3.0 | 11.0 | 0.00 | 0.00 | 0.00 | 73 | 1018.3 |
| 20260506191905 | 58 | 343 | 4.0 | 11.0 | 0.00 | 0.00 | 0.00 | 74 | 1018.3 |
| 20260506191405 | 59 | 314 | 4.0 | 11.0 | 0.00 | 0.00 | 0.00 | 72 | 1018.1 |
| 20260506190909 | 59 | 312 | 3.0 | 9.0 | 0.00 | 0.00 | 0.00 | 72 | 1018.1 |
| 20260506190406 | 59 | 9 | 4.0 | 15.0 | 0.00 | 0.00 | 0.00 | 78 | 1018.0 |
| 20260506185907 | 57 | 264 | 6.0 | 15.0 | 0.00 | 0.00 | 0.00 | 77 | 1018.1 |
| 20260506185406 | 58 | 307 | 4.0 | 15.0 | 0.00 | 0.00 | 0.00 | 75 | 1018.0 |
| 20260506184859 | 58 | 318 | 3.0 | 9.0 | 0.00 | 0.00 | 0.00 | 78 | 1018.0 |
| 20260506183846 | 57 | 303 | 3.0 | 9.0 | 0.00 | 0.00 | 0.00 | 75 | 1018.0 |
| 20260506183344 | 57 | 305 | 2.0 | 9.0 | 0.00 | 0.00 | 0.00 | 76 | 1018.0 |
| 20260506182845 | 57 | 285 | 1.0 | 5.0 | 0.00 | 0.00 | 0.00 | 76 | 1018.0 |
| 20260506182346 | 57 | 339 | 2.0 | 8.0 | 0.00 | 0.00 | 0.00 | 78 | 1018.1 |
| 20260506181844 | 56 | 295 | 3.0 | 8.0 | 0.00 | 0.00 | 0.00 | 78 | 1018.2 |
| 20260506181610 | 56 | 343 | 3.0 | 7.0 | 0.00 | 0.00 | 0.00 | 79 | 1018.1 |
| 20260506180845 | 55 | 319 | 3.0 | 8.0 | 0.00 | 0.00 | 0.00 | 79 | 1018.0 |
| 20260506180606 | 56 | 271 | 3.0 | 8.0 | 0.00 | 0.00 | 0.00 | 79 | 1018.0 |
| 20260506180110 | 55 | 330 | 3.0 | 7.0 | 0.00 | 0.00 | 0.00 | 79 | 1017.9 |
| 20260506175609 | 56 | 320 | 2.0 | 6.0 | 0.00 | 0.00 | 0.00 | 80 | 1017.9 |
| 20260506174845 | 55 | 274 | 3.0 | 8.0 | 0.00 | 0.00 | 0.00 | 80 | 1018.0 |
| 20260506174345 | 55 | 345 | 3.0 | 8.0 | 0.00 | 0.00 | 0.00 | 79 | 1018.0 |
| 20260506173845 | 55 | 326 | 4.0 | 10.0 | 0.00 | 0.00 | 0.00 | 81 | 1018.0 |
| 20260506173343 | 55 | 316 | 4.0 | 10.0 | 0.00 | 0.00 | 0.00 | 80 | 1018.0 |
| 20260506172843 | 54 | 295 | 4.0 | 9.0 | 0.00 | 0.00 | 0.00 | 80 | 1017.9 |
| 20260506172341 | 55 | 280 | 4.0 | 10.0 | 0.00 | 0.00 | 0.00 | 80 | 1017.9 |
| 20260506172101 | 55 | 305 | 3.0 | 10.0 | 0.00 | 0.00 | 0.00 | 79 | 1017.8 |
| 20260506171333 | 55 | 128 | 3.0 | 9.0 | 0.00 | 0.00 | 0.00 | 80 | 1017.7 |
| 20260506170834 | 55 | 85 | 3.0 | 8.0 | 0.00 | 0.00 | 0.00 | 78 | 1017.7 |
| 20260506170333 | 55 | 305 | 4.0 | 12.0 | 0.00 | 0.00 | 0.00 | 79 | 1017.6 |
| 20260506170103 | 55 | 193 | 4.0 | 12.0 | 0.00 | 0.00 | 0.00 | 80 | 1017.5 |
| 20260506165331 | 55 | 328 | 3.0 | 8.0 | 0.00 | 0.00 | 0.00 | 80 | 1017.4 |